Location: Joffre
(52.3362°N, 113.5373°W)
Time: 13:45:14
(UTC+00:00)

Envisat - Pass Details

Date: 02 December 2021
Orbit: 764 x 766 km, 98.2° (Epoch: 28 January)

Event Time Altitude Azimuth Distance (km) Brightness Sun altitude
Rises 11:45:31 0° 22° (NNE) 3,248 6.6 -32.1°
Reaches altitude 10° 11:48:10 10° 34° (NE) 2,316 5.9 -31.7°
Maximum altitude 11:52:32 28° 93° (E) 1,416 4.9 -31.1°
Drops below altitude 10° 11:56:51 10° 152° (SSE) 2,300 5.7 -30.4°
Sets 11:59:28 0° 163° (SSE) 3,221 6.4 -30.0°
